[[{"header":{"parameterUnit":"m.s-1","parameterCategory":1,"la1":30.2991,"la2":30.254,"lo1":-89.0895,"lo2":-89.0444,"dy":0.0017,"dx":0.0017,"nx":28,"ny":28,"refTime":"2023-11-16T03:00:00:Z","depth":0,"parameterNumber":2,"parameterNumberName":"U-component_of_WINDS"},"data":[0,0,0,0,0,0,0,0,0,0,0,0,0,0,0,0,0,0,0,0,0,0,0,0,0,0,0,0,0,0,0,0,0,0,0,0,0,0,0,0,0,0,0,0,0,0,0,0,0,0,0,0,0,0,0,0,0,0,-4.5377,-4.5378,0,-4.5487,-4.5488,-4.5489,-4.54,-4.5397,-4.5393,-4.5389,-4.5506,-4.5513,-4.5519,0,0,0,0,0,0,0,0,0,0,0,0,0,-4.5092,-4.5098,-4.5377,-4.5378,-4.5379,-4.5487,-4.5488,-4.549,-4.5401,-4.5396,-4.5392,-4.5388,-4.5504,-4.5512,-4.552,0,0,0,0,0,0,0,0,0,0,0,0,0,-4.5211,-4.51,-4.5376,-4.5348,-4.5346,-4.5486,-4.5488,-4.549,-4.5402,-4.5396,-4.5391,-4.5385,-4.5502,-4.5511,-4.5521,-4.5696,0,0,-4.5551,-4.5556,0,0,0,0,0,0,0,0,-4.5204,-4.5221,-4.5351,-4.535,-4.5349,-4.5424,-4.5431,-4.5559,-4.5403,-4.5381,-4.5389,-4.5383,-4.5484,-4.5495,-4.5528,-4.5702,-4.5707,-4.5552,-4.5558,-4.5563,-4.5565,0,0,0,0,0,0,0,-4.5196,-4.5216,-4.542,-4.5353,-4.5352,-4.5331,-4.5341,-4.5455,-4.5463,-4.5383,-4.5376,-4.539,-4.5482,-4.5519,-4.553,-4.5708,-4.5552,-4.5561,-4.5567,-4.5571,-4.6033,-4.6039,0,0,0,0,0,0,-4.519,-4.521,-4.5417,-4.5424,-4.5261,-4.534,-4.5352,-4.5406,-4.5462,-4.5465,-4.5395,-4.5386,-4.5505,-4.5519,-4.5534,-4.5744,-4.5563,-4.5572,-4.5578,-4.6026,-4.6034,-4.6041,0,0,0,0,0,0,-4.5184,-4.5209,-4.5412,-4.5315,-4.5339,-4.5351,-4.5412,-4.5411,-4.5447,-4.5471,-4.5472,-4.5431,-4.5501,-4.552,-4.5657,-4.5747,-4.5576,-4.5585,-4.6019,-4.6029,-4.6037,-4.6165,0,0,0,0,0,0,-4.5177,-4.5208,-4.5274,-4.5317,-4.5345,-4.5533,-4.5418,-4.5417,-4.5464,-4.5453,-4.5505,-4.5508,-4.5498,-4.5642,-4.5667,-4.5758,-4.5593,-4.6011,-4.6023,-4.6034,-4.6153,-4.6178,-4.6199,0,0,0,0,0,-4.5167,-4.5306,-4.5278,-4.5303,-4.5427,-4.5538,-4.5554,-4.5538,-4.5472,-4.5539,-4.5554,-4.5506,-4.5733,-4.5657,-4.5684,-4.5779,-4.6005,-4.602,-4.6034,-4.6143,-4.6173,-4.6199,0,0,0,0,0,0,-4.5274,-4.5311,-4.528,-4.5437,-4.5485,-4.5522,-4.5607,-4.557,-4.5639,-4.5626,-4.5604,-4.5616,-4.576,-4.5783,-4.5698,-4.5952,-4.5859,-4.5879,-4.5933,-4.5962,-4.5984,-4.5977,-4.5602,0,0,0,0,0,-4.5316,-4.5401,-4.5429,-4.5565,-4.5591,-4.5595,-4.5642,-4.5626,-4.5675,-4.5695,-4.572,-4.5771,-4.5853,-4.5908,-4.5985,-4.6155,-4.6166,-4.6234,-4.6257,-4.6276,-4.6294,-4.6388,-4.6419,-4.6087,-4.6087,-4.6087,0,0,-4.5404,-4.5434,-4.549,-4.5588,-4.5623,-4.5713,-4.5612,-4.5712,-4.578,-4.571,-4.5841,-4.5862,-4.5916,-4.6071,-4.614,-4.6094,-4.6388,-4.6294,-4.6309,-4.6317,-4.6406,-4.6437,-4.6465,-4.6097,-4.6095,-4.6094,0,0,-4.561,-4.5641,-4.5758,-4.5795,-4.5849,-4.5851,-4.5879,-4.5922,-4.5933,-4.6063,-4.6014,-4.6094,-4.6236,-4.6278,-4.6318,-4.654,-4.6499,-4.6565,-4.6687,-4.6778,-4.6804,-4.6828,-4.6909,-4.6938,-4.6583,-4.6584,-4.6584,0,-4.5713,-4.5846,-4.5824,-4.5928,-4.5973,-4.5913,-4.6033,-4.607,-4.6147,-4.618,-4.6127,-4.6304,-4.6337,-4.6501,-4.6556,-4.6589,-4.6622,-4.6561,-4.6802,-4.6825,-4.6846,-4.6924,-4.6955,-4.6591,-4.6591,-4.659,-4.6589,0,-4.5971,-4.6064,-4.6152,-4.6228,-4.6282,-4.6394,-4.639,-4.6448,-4.6427,-4.6434,-4.6569,-4.6606,-4.669,-4.6727,-4.6707,-4.689,-4.6859,-4.6805,-4.6711,-4.6886,-4.6959,-4.6988,-4.6603,-4.66,-4.6598,-4.6596,0,0,-4.625,-4.631,-4.6344,-4.6377,-4.6432,-4.6505,-4.6613,-4.6695,-4.6746,-4.6801,-4.6893,-4.7015,-4.6965,-4.701,-4.6994,-4.7074,-4.725,-4.7009,-4.701,-4.7055,-4.7456,-4.7499,-4.7533,-4.7223,-4.7228,-4.7232,-4.7452,0,-4.6461,-4.6649,-4.6632,-4.6812,-4.6899,-4.6843,-4.6938,-4.6983,-4.6993,-4.7069,-4.708,-4.7168,-4.7093,-4.712,-4.7197,-4.7213,-4.7331,-4.7196,-4.7311,-4.7315,-4.7301,-4.7571,-4.7616,-4.7822,-4.748,-4.7485,-4.7488,0,-4.6732,-4.6796,-4.6984,-4.7026,-4.7062,-4.7148,-4.7222,-4.7294,-4.7344,-4.7346,-4.7397,-4.7367,-4.7479,-4.738,-4.7535,-4.7444,-4.7489,-4.7504,-4.7512,-4.7524,-4.7414,-4.7593,-4.7887,-4.7919,-4.7532,-4.7529,-4.7526,0,-4.692,-4.7053,-4.7183,-4.7213,-4.7265,-4.7327,-4.7352,-4.7396,-4.7446,-4.751,-4.7543,-4.762,-4.7663,-4.7724,-4.7717,-4.7645,-4.7875,-4.7775,-4.7882,-4.7882,-4.7935,-4.7932,-4.8243,-4.796,-4.796,-4.7959,-4.7958,0,-4.7159,-4.7277,-4.7268,-4.7348,-4.7479,-4.7459,-4.7589,-4.7607,-4.7647,-4.7731,-4.7686,-4.7766,-4.775,-4.7831,-4.7826,-4.7956,-4.7975,-4.7981,-4.7979,-4.7987,-4.7987,-4.8019,-4.8005,-4.7967,-4.7965,-4.7964,-4.7962,0,-4.7392,-4.739,-4.7529,-4.7566,-4.7578,-4.7674,-4.7706,-4.7783,-4.7789,-4.7896,-4.792,-4.7929,-4.8022,-4.802,-4.8125,-4.8122,-4.8282,-4.8262,-4.8265,-4.8262,-4.837,-4.8361,-4.8714,-4.876,-4.8445,-4.8448,-4.845,0,-4.7546,-4.7635,-4.7682,-4.7734,-4.7763,-4.7848,-4.7899,-4.7882,-4.7937,-4.8001,-4.807,-4.8158,-4.8228,-4.8378,-4.8396,-4.8476,-4.8459,-4.8577,-4.8472,-4.8477,-4.8464,-4.846,-4.847,-4.8599,-4.8603,-4.8606,-4.8608,0,-4.782,-4.7814,-4.7888,-4.7963,-4.8025,-4.8083,-4.8137,-4.8182,-4.8171,-4.8236,-4.8329,-4.8383,-4.8489,-4.8578,-4.8656,-4.8682,-4.8646,-4.8641,-4.867,-4.8681,-4.868,-4.8684,-4.8325,-4.8634,-4.8631,-4.8629,-4.8628,-4.8627,-4.8019,-4.8097,-4.8142,-4.8227,-4.8265,-4.8316,-4.839,-4.8405,-4.8482,-4.8567,-4.8552,-4.8657,-4.8706,-4.8805,-4.8839,-4.8922,-4.8881,-4.8923,-4.8934,-4.8945,-4.8959,-4.8664,-4.8936,-4.8935,-4.8934,-4.8934,-4.8933,0,-4.8293,-4.8319,-4.8397,-4.8473,-4.854,-4.8496,-4.8553,-4.8613,-4.8705,-4.8753,-4.8822,-4.893,-4.9016,-4.9039,-4.9122,-4.9184,-4.917,-4.9207,-4.9204,-4.9211,-4.8989,-4.8957,-4.9218,-4.9218,-4.9218,-4.9218,-4.9218,-4.9218,-4.8444,-4.8573,-4.8573,-4.8722,-4.8747,-4.8849,-4.8885,-4.8933,-4.8971,-4.9093,-4.9163,-4.9177,-4.9216,-4.9302,-4.9379,-4.9384,-4.9418,-4.9463,-4.9462,-4.9255,-4.9227,-4.9199,-4.9169,-4.947,-4.9471,-4.9677,-4.9679,-4.968]},{"header":{"parameterUnit":"m.s-1","parameterCategory":1,"la1":30.2991,"la2":30.254,"lo1":-89.0895,"lo2":-89.0444,"dy":0.0017,"dx":0.0017,"nx":28,"ny":28,"refTime":"2023-11-16T03:00:00:Z","depth":0,"parameterNumber":3,"parameterNumberName":"V-component_of_WINDS"},"data":[0,0,0,0,0,0,0,0,0,0,0,0,0,0,0,0,0,0,0,0,0,0,0,0,0,0,0,0,0,0,0,0,0,0,0,0,0,0,0,0,0,0,0,0,0,0,0,0,0,0,0,0,0,0,0,0,0,0,-4.9463,-4.9462,0,-4.9436,-4.9436,-4.9436,-4.9346,-4.9344,-4.9342,-4.934,-4.9314,-4.9316,-4.9317,0,0,0,0,0,0,0,0,0,0,0,0,0,-4.9437,-4.9438,-4.9463,-4.9462,-4.9462,-4.9436,-4.9436,-4.9435,-4.9346,-4.9344,-4.9341,-4.9339,-4.9314,-4.9315,-4.9317,0,0,0,0,0,0,0,0,0,0,0,0,0,-4.9433,-4.9438,-4.9463,-4.9414,-4.941,-4.9436,-4.9436,-4.9435,-4.9347,-4.9344,-4.9341,-4.9338,-4.9314,-4.9315,-4.9317,-4.9389,0,0,-4.9323,-4.9323,0,0,0,0,0,0,0,0,-4.9433,-4.9434,-4.9422,-4.9418,-4.9413,-4.9391,-4.9417,-4.942,-4.9348,-4.9371,-4.934,-4.9336,-4.9343,-4.9342,-4.9343,-4.9388,-4.9387,-4.9323,-4.9324,-4.9325,-4.9325,0,0,0,0,0,0,0,-4.9434,-4.9435,-4.9452,-4.9422,-4.9416,-4.9394,-4.939,-4.9417,-4.9374,-4.9368,-4.9362,-4.936,-4.9339,-4.9342,-4.9342,-4.9386,-4.9323,-4.9324,-4.9325,-4.9326,-4.9486,-4.949,0,0,0,0,0,0,-4.9441,-4.9436,-4.9453,-4.9451,-4.9416,-4.9397,-4.9393,-4.9401,-4.9373,-4.9366,-4.9363,-4.9356,-4.934,-4.934,-4.9341,-4.9422,-4.9325,-4.9326,-4.9327,-4.9483,-4.9487,-4.9491,0,0,0,0,0,0,-4.9441,-4.9443,-4.9454,-4.9442,-4.9441,-4.9401,-4.9411,-4.9402,-4.9405,-4.9369,-4.9361,-4.9373,-4.9338,-4.9338,-4.9377,-4.942,-4.9327,-4.9329,-4.948,-4.9485,-4.9489,-4.9586,0,0,0,0,0,0,-4.944,-4.9444,-4.947,-4.9443,-4.9442,-4.9491,-4.9414,-4.9404,-4.9408,-4.9399,-4.9377,-4.937,-4.9336,-4.9375,-4.9379,-4.9421,-4.933,-4.9476,-4.9482,-4.9487,-4.9579,-4.9593,-4.9606,0,0,0,0,0,-4.944,-4.9499,-4.9472,-4.9475,-4.9475,-4.9494,-4.9493,-4.9452,-4.9412,-4.9438,-4.9415,-4.9371,-4.9415,-4.938,-4.9383,-4.9427,-4.9473,-4.948,-4.9487,-4.9573,-4.9591,-4.9606,0,0,0,0,0,0,-4.9534,-4.9495,-4.9464,-4.9517,-4.9509,-4.9478,-4.9511,-4.9473,-4.9476,-4.9468,-4.9417,-4.9413,-4.9459,-4.9446,-4.9408,-4.9494,-4.9436,-4.9445,-4.95,-4.9517,-4.953,-4.9532,-4.9332,0,0,0,0,0,-4.9561,-4.9579,-4.9544,-4.9594,-4.9591,-4.9552,-4.9559,-4.9527,-4.9517,-4.9514,-4.9493,-4.9486,-4.9497,-4.9507,-4.9516,-4.9577,-4.957,-4.9608,-4.9622,-4.9633,-4.9641,-4.9671,-4.9687,-4.9514,-4.9514,-4.9514,0,0,-4.9617,-4.9598,-4.9612,-4.9612,-4.9602,-4.9622,-4.955,-4.9574,-4.9588,-4.9517,-4.9552,-4.9537,-4.9525,-4.9575,-4.9596,-4.9567,-4.9687,-4.9642,-4.9652,-4.9653,-4.968,-4.9697,-4.9711,-4.9519,-4.9518,-4.9517,0,0,-4.9728,-4.9716,-4.9755,-4.9747,-4.9733,-4.9706,-4.9715,-4.969,-4.9677,-4.9711,-4.9658,-4.9675,-4.9696,-4.969,-4.9689,-4.9797,-4.9757,-4.9802,-4.9873,-4.9903,-4.9917,-4.9929,-4.9967,-4.9981,-4.981,-4.981,-4.981,0,-4.98,-4.9827,-4.9781,-4.9808,-4.9809,-4.9745,-4.9785,-4.9779,-4.9769,-4.9772,-4.9738,-4.9763,-4.9751,-4.9798,-4.9824,-4.9826,-4.9835,-4.9804,-4.9919,-4.993,-4.994,-4.9976,-4.9991,-4.9815,-4.9815,-4.9814,-4.9814,0,-4.9915,-4.9935,-4.9968,-4.9959,-4.9964,-4.9998,-4.9957,-4.9968,-4.9936,-4.9913,-4.9948,-4.9931,-4.9935,-4.9943,-4.9913,-4.9986,-4.9968,-4.9928,-4.9869,-4.9963,-4.9996,-5.0009,-4.9823,-4.9821,-4.982,-4.9818,0,0,-5.0086,-5.005,-5.0063,-5.0057,-5.0036,-5.0051,-5.0081,-5.0084,-5.0094,-5.0089,-5.0113,-5.0133,-5.0095,-5.0095,-5.0063,-5.009,-5.0175,-5.0045,-5.0044,-5.007,-5.0254,-5.0284,-5.0301,-5.0148,-5.0151,-5.0153,-5.0255,0,-5.0191,-5.024,-5.0199,-5.0256,-5.0273,-5.0212,-5.0239,-5.0229,-5.0208,-5.022,-5.0197,-5.0211,-5.016,-5.0159,-5.0183,-5.016,-5.0212,-5.0152,-5.017,-5.0171,-5.0174,-5.0318,-5.035,-5.0447,-5.0267,-5.0269,-5.0271,0,-5.0321,-5.0321,-5.0379,-5.0353,-5.0359,-5.0383,-5.0382,-5.0394,-5.0382,-5.0364,-5.0364,-5.0324,-5.0352,-5.0295,-5.0332,-5.0293,-5.0298,-5.0287,-5.029,-5.029,-5.0227,-5.0321,-5.0477,-5.0492,-5.029,-5.0289,-5.0288,0,-5.0439,-5.0453,-5.0489,-5.0487,-5.0458,-5.0476,-5.0465,-5.0449,-5.0453,-5.0453,-5.0455,-5.0458,-5.046,-5.0463,-5.0426,-5.0387,-5.0468,-5.0408,-5.0454,-5.0456,-5.0474,-5.0473,-5.0633,-5.0478,-5.0478,-5.0478,-5.0478,0,-5.0561,-5.0599,-5.0542,-5.0564,-5.0605,-5.0557,-5.0599,-5.0581,-5.0568,-5.0586,-5.0534,-5.0552,-5.0501,-5.0514,-5.0485,-5.0521,-5.0522,-5.0509,-5.0501,-5.0513,-5.0515,-5.0516,-5.0508,-5.0482,-5.0481,-5.048,-5.0479,0,-5.0699,-5.0663,-5.0698,-5.0667,-5.066,-5.0692,-5.0665,-5.0685,-5.066,-5.0683,-5.0686,-5.0648,-5.066,-5.0623,-5.063,-5.061,-5.0661,-5.0642,-5.0666,-5.066,-5.0708,-5.0704,-5.0873,-5.0893,-5.0727,-5.0729,-5.073,0,-5.0779,-5.0807,-5.0778,-5.0786,-5.0777,-5.0791,-5.0794,-5.0749,-5.0755,-5.0742,-5.0763,-5.0771,-5.0774,-5.0797,-5.077,-5.0775,-5.0755,-5.0814,-5.0756,-5.0767,-5.0756,-5.0754,-5.0757,-5.0827,-5.0829,-5.083,-5.0832,0,-5.0925,-5.0905,-5.0912,-5.0912,-5.0917,-5.0916,-5.091,-5.092,-5.0871,-5.088,-5.0891,-5.0895,-5.0901,-5.0909,-5.0908,-5.0897,-5.0856,-5.085,-5.0861,-5.0874,-5.0886,-5.088,-5.0698,-5.0847,-5.0845,-5.0844,-5.0843,-5.0843,-5.1036,-5.1057,-5.104,-5.1049,-5.104,-5.1036,-5.1052,-5.1029,-5.1037,-5.1038,-5.1011,-5.1028,-5.1014,-5.1008,-5.1001,-5.1013,-5.0986,-5.1002,-5.1006,-5.1011,-5.1019,-5.0885,-5.1013,-5.1013,-5.1012,-5.1012,-5.1011,0,-5.1178,-5.1164,-5.1172,-5.1166,-5.1173,-5.1133,-5.1125,-5.1134,-5.1149,-5.1139,-5.1143,-5.1156,-5.1164,-5.1137,-5.1141,-5.1156,-5.1138,-5.1159,-5.1157,-5.1155,-5.1043,-5.1033,-5.1174,-5.1174,-5.1174,-5.1174,-5.1174,-5.1174,-5.1253,-5.1286,-5.1264,-5.1293,-5.1278,-5.1293,-5.1292,-5.1288,-5.128,-5.1296,-5.1302,-5.1284,-5.1267,-5.1269,-5.1274,-5.1266,-5.127,-5.1297,-5.1283,-5.1179,-5.1163,-5.1148,-5.1138,-5.1299,-5.1299,-5.1393,-5.1394,-5.1395]}]]